Home > Weather > Monaco > Past weeks

Flag for Monaco Weather for the Past 2 Weeks in Monaco, Monaco

Now
64 °F

Sunny.


Feels Like: 64 °F
Forecast: 52 / 66 °F
Wind: 9 mph from Northwest

Location: Nice Airport

Current Time: May 6, 2016 at 10:19:41 AM

Latest Report: May 6, 2016 at 9:30 AM


Visibility: 10 mi

Pressure: 30.07 "Hg

Humidity: 37%

Dew Point: 37 °F

Location of MonacoLocation

Historic Weather in Monaco — Graph

°F

Monaco Temperature Yesterday

Maximum temperature yesterday: 68 °F (at 12:30 PM)
Minimum temperature yesterday: 57 °F (at 1:00 AM)
Average temperature yesterday: 63 °F

High & Low Weather Summary for the Past Weeks

 TemperatureHumidityPressure
High72 °F (Apr 27, 2:30 PM)94% (Apr 23, 2:00 AM)30.18 "Hg (Apr 23, 2:00 AM)
Low48 °F (Apr 26, 5:00 AM)19% (Apr 27, 11:00 PM)29.50 "Hg (Apr 24, 5:00 PM)
Average60 °F58%29.88 "Hg
* Reported Apr 21 9:00 AM — May 6 9:00 AM, Monaco, Weather by CustomWeather, © 2016

Note: Actual official high and low records may vary slightly from our data, if they occured in-between our weather recording intervals... More about our weather records

Advertising

Monaco Weather History for the Previous 24 Hours

Scroll right to see more
 ConditionsComfort  
Time TempWeatherWind HumidityBarometerVisibility
9:00 AM
Fri, May 6
63 °FSunny.12 mph39%30.07 "Hg10 mi
8:30 AM59 °FSunny.13 mph45%30.07 "Hg10 mi
8:00 AM57 °FSunny.12 mph48%30.07 "Hg10 mi
7:30 AM55 °FSunny.13 mph51%30.07 "Hg10 mi
7:00 AM55 °FClear.13 mph51%30.07 "Hg10 mi
6:30 AM54 °FClear.15 mph54%30.07 "Hg10 mi
6:00 AM55 °FClear.13 mph51%30.07 "Hg10 mi
5:30 AM55 °FClear.13 mph51%30.07 "Hg10 mi
5:00 AM55 °FClear.13 mph51%30.07 "Hg10 mi
4:30 AM55 °FClear.12 mph51%30.07 "Hg10 mi
4:00 AM57 °FClear.12 mph48%30.07 "Hg10 mi
3:30 AM57 °FClear.10 mph48%30.07 "Hg10 mi
3:00 AM57 °FClear.9 mph48%30.07 "Hg10 mi
2:30 AM59 °FClear.10 mph48%30.07 "Hg10 mi
2:00 AM59 °FClear.8 mph48%30.09 "Hg10 mi
1:30 AM59 °FClear.8 mph51%30.09 "Hg10 mi
1:00 AM61 °FClear.9 mph48%30.09 "Hg10 mi
12:30 AM61 °FClear.9 mph52%30.09 "Hg10 mi
12:00 AM61 °FClear.9 mph52%30.09 "Hg10 mi
11:30 PM
Thu, May 5
61 °FClear.8 mph55%30.09 "Hg10 mi
11:00 PM61 °FClear.9 mph55%30.09 "Hg10 mi
10:30 PM63 °FClear.8 mph52%30.09 "Hg10 mi
10:00 PM63 °FPassing clouds.6 mph52%30.09 "HgN/A
9:30 PM63 °FSunny.3 mph59%30.09 "Hg10 mi
9:00 PM63 °FSunny.2 mph56%30.07 "Hg10 mi
8:30 PM64 °FSunny.2 mph60%30.07 "Hg10 mi
8:00 PM64 °FPassing clouds.5 mph56%30.07 "HgN/A
7:30 PM64 °FSunny.10 mph68%30.07 "Hg10 mi
7:00 PM64 °FSunny.12 mph68%30.07 "Hg10 mi
6:30 PM64 °FSunny.15 mph68%30.07 "Hg10 mi
6:00 PM66 °FSunny.14 mph64%30.07 "Hg10 mi
5:30 PM66 °FSunny.13 mph64%30.09 "Hg10 mi
5:00 PM64 °FSunny.15 mph68%30.09 "Hg10 mi
4:30 PM66 °FSunny.13 mph60%30.09 "Hg10 mi
4:00 PM66 °FPartly sunny.16 mph56%30.09 "HgN/A
3:30 PM68 °FScattered clouds.17 mph56%30.09 "HgN/A
3:00 PM68 °FPassing clouds.16 mph56%30.09 "HgN/A
2:30 PM66 °FPassing clouds.18 mph60%30.09 "HgN/A
2:00 PM66 °FPassing clouds.21 mph60%30.09 "HgN/A
1:30 PM66 °FPassing clouds.20 mph56%30.09 "HgN/A
1:00 PM68 °FPassing clouds.16 mph53%30.09 "HgN/A
12:30 PM68 °FPassing clouds.17 mph49%30.09 "HgN/A
12:00 PM66 °FPassing clouds.18 mph56%30.09 "HgN/A
11:30 AM66 °FPassing clouds.18 mph52%30.09 "HgN/A
11:00 AM66 °FPassing clouds.13 mph68%30.09 "HgN/A
10:30 AM64 °FPassing clouds.15 mph68%30.09 "HgN/A
10:00 AM64 °FPassing clouds.12 mph64%30.09 "HgN/A
Weather by CustomWeather, © 2016

See weather overviewHow to use our weather pages